Погода в Медулине

Хорватия     44°49′14″N   13°56′04″E
темп.,
°C
ветер,
м/с
пор.,
м/с
влажн.,
%
обл.,
%
осадки,
мм/ч
давл.,
гПа
погр.,
м
4 июля, пн
пн423:00+26с56650 0.0 101559
02:00+26ссв57650 0.0 1015140
05:00+26ссв57660 0.0 1014124
08:00+25ссв45650 0.0 1015146
11:00+26всв22622 0.0 101585
14:00+28зюз335436 0.0 101498
17:00+29зюз44574 0.0 101257
20:00+28в44598 0.0 101136
5 июля, вт
вт523:00+27зсз22692 0.0 101315
02:00+26с226611 0.0 101340
05:00+25св677135 0.0 1012195
08:00+24св89710 0.0 1013335
11:00+25св56680 0.0 1014255
14:00+27зсз33620 0.0 1013114
17:00+27з77700 0.0 1012141
20:00+26ссв810710 0.0 1012205
6 июля, ср
ср623:00+25св1013740 0.0 1014554
02:00+25св1214670 0.0 1014613
05:00+25св1115679 0.0 1014688
08:00+25св121363100 0.0 1015792
11:00+26всв913585 0.0 1016611
14:00+27всв912575 0.0 1016302
17:00+27ссв57620 0.0 101587
20:00+28св710590 0.0 1015126
7 июля, чт
чт723:00+27св710655 0.0 1015178
02:00+26св912601 0.0 1014300
05:00+25св1113600 0.0 1014463
08:00+25св9106022 0.0 1014354
11:00+26св896199 0.0 1014303
14:00+27св79635 0.0 1013219
17:00+27ссв4561100 0.0 101286
20:00+23ссв131573100 0.3 1013746
8 июля, пт
пт823:00+21св16168095 2.0 1015633
02:00+21св16187599 2.1 10151251
05:00+22всв162066100 0.1 10151264
08:00+22св1418625 0.1 10171465
11:00+23св12146042 0.0 10171387
14:00+24всв9115445 0.0 10171312
17:00+22юв1463100 1.5 1017612
20:00+22всв912572 1.8 10191242